• In Netherlands
  • List of Countries
  • For 7 days
  • Water Temperature
  • Satellite Maps
  • Weather Map
  • Weather Widgets
  • user-avatar
    Login

    Hourly Weather Trinidad

    Today, 28 May, Sunday

    Time Temperature Precipitation Wind Pressure Humidity
    00:00 +24°C° 0 mm 2 mps 748 mmHg 89%
    01:00 +24°C° 0 mm 2 mps 748 mmHg 88%
    02:00 +24°C° 0 mm 2 mps 748 mmHg 88%
    03:00 +23°C° 0 mm 2 mps 748 mmHg 87%
    04:00 +23°C° 0 mm 2 mps 748 mmHg 86%
    05:00 +21°C° 0 mm 2 mps 748 mmHg 86%
    06:00 +21°C° 0 mm 3 mps 748 mmHg 83%
    07:00 +21°C° 0 mm 3 mps 749 mmHg 81%
    08:00 +21°C° 0 mm 3 mps 749 mmHg 79%
    09:00 +24°C° 0 mm 3 mps 749 mmHg 75%
    10:00 +25°C° 0 mm 3 mps 750 mmHg 70%
    11:00 +27°C° 0 mm 3 mps 750 mmHg 66%
    12:00 +28°C° 0 mm 2 mps 749 mmHg 64%
    13:00 +29°C° 0 mm 2 mps 749 mmHg 62%
    14:00 +30°C° 0 mm 2 mps 748 mmHg 59%
    15:00 +30°C° 0 mm 2 mps 747 mmHg 63%
    16:00 +29°C° 0 mm 1 mps 747 mmHg 67%
    17:00 +29°C° 0 mm 1 mps 746 mmHg 71%
    18:00 +27°C° 0 mm 1 mps 747 mmHg 74%
    19:00 +26°C° 0 mm 1 mps 747 mmHg 78%
    20:00 +25°C° 0 mm 2 mps 747 mmHg 82%
    21:00 +24°C° 0 mm 2 mps 747 mmHg 83%
    22:00 +24°C° 0 mm 2 mps 748 mmHg 84%
    23:00 +23°C° 0 mm 2 mps 748 mmHg 86%

    Tomorrow, 29 May, Monday

    Time Temperature Precipitation Wind Pressure Humidity
    00:00 +23°C° 0 mm 2 mps 748 mmHg 86%
    01:00 +23°C° 0 mm 2 mps 748 mmHg 87%
    02:00 +23°C° 0 mm 2 mps 748 mmHg 88%
    03:00 +22°C° 0 mm 1 mps 748 mmHg 89%
    04:00 +22°C° 0 mm 1 mps 747 mmHg 90%
    05:00 +22°C° 0 mm 1 mps 747 mmHg 91%
    06:00 +21°C° 0 mm 2 mps 748 mmHg 88%
    07:00 +23°C° 0 mm 2 mps 748 mmHg 86%
    08:00 +23°C° 0 mm 2 mps 749 mmHg 83%
    09:00 +25°C° 0 mm 2 mps 749 mmHg 76%
    10:00 +27°C° 0 mm 2 mps 749 mmHg 70%
    11:00 +29°C° 0 mm 1 mps 750 mmHg 63%
    12:00 +31°C° 0 mm 1 mps 749 mmHg 61%
    13:00 +32°C° 0 mm 1 mps 748 mmHg 58%
    14:00 +31°C° 0 mm 0 mps 747 mmHg 56%
    15:00 +30°C° 0 mm 0 mps 747 mmHg 60%
    16:00 +30°C° 0 mm 0 mps 746 mmHg 65%
    17:00 +29°C° 0 mm 0 mps 746 mmHg 69%
    18:00 +27°C° 0 mm 0 mps 746 mmHg 74%
    19:00 +27°C° 0 mm 1 mps 746 mmHg 78%
    20:00 +25°C° 0 mm 1 mps 747 mmHg 83%
    21:00 +25°C° 0 mm 1 mps 747 mmHg 84%
    22:00 +25°C° 0 mm 1 mps 747 mmHg 85%
    23:00 +25°C° 0 mm 1 mps 747 mmHg 86%

    Day after tomorrow, 30 May, Tuesday

    Time Temperature Precipitation Wind Pressure Humidity
    00:00 +24°C° 0 mm 1 mps 747 mmHg 89%
    01:00 +24°C° 0 mm 1 mps 747 mmHg 91%
    02:00 +23°C° 0 mm 1 mps 747 mmHg 94%
    03:00 +23°C° 0 mm 1 mps 746 mmHg 95%
    04:00 +23°C° 0 mm 1 mps 746 mmHg 96%
    05:00 +22°C° 0 mm 1 mps 746 mmHg 98%
    06:00 +23°C° 0 mm 1 mps 747 mmHg 95%
    07:00 +23°C° 0 mm 1 mps 747 mmHg 92%
    08:00 +24°C° 0 mm 1 mps 748 mmHg 89%
    09:00 +26°C° 0 mm 1 mps 748 mmHg 81%
    10:00 +29°C° 0 mm 1 mps 748 mmHg 72%
    11:00 +31°C° 0 mm 1 mps 749 mmHg 64%
    12:00 +32°C° 0 mm 1 mps 748 mmHg 62%
    13:00 +33°C° 0 mm 1 mps 747 mmHg 59%
    14:00 +33°C° 0 mm 1 mps 746 mmHg 57%
    15:00 +33°C° 0 mm 1 mps 745 mmHg 61%
    16:00 +32°C° 0 mm 1 mps 745 mmHg 65%
    17:00 +31°C° 0 mm 1 mps 744 mmHg 69%
    18:00 +29°C° 0 mm 1 mps 745 mmHg 74%
    19:00 +28°C° 0 mm 1 mps 745 mmHg 80%
    20:00 +26°C° 0 mm 1 mps 745 mmHg 85%
    21:00 +26°C° 0 mm 1 mps 746 mmHg 86%
    22:00 +26°C° 0 mm 1 mps 746 mmHg 87%
    23:00 +25°C° 0 mm 1 mps 746 mmHg 88%

    31 May, Wednesday

    Time Temperature Precipitation Wind Pressure Humidity
    00:00 +25°C° 0 mm 1 mps 745 mmHg 90%
    01:00 +25°C° 0 mm 1 mps 745 mmHg 91%
    02:00 +25°C° 0 mm 1 mps 745 mmHg 93%
    03:00 +24°C° 0 mm 1 mps 745 mmHg 94%
    04:00 +24°C° 0 mm 1 mps 745 mmHg 95%
    05:00 +22°C° 0 mm 0 mps 745 mmHg 96%
    06:00 +24°C° 1.7 mm 1 mps 746 mmHg 96%
    07:00 +25°C° 1.7 mm 1 mps 746 mmHg 95%
    08:00 +25°C° 1.7 mm 2 mps 747 mmHg 94%
    09:00 +26°C° 1 mm 2 mps 748 mmHg 92%
    10:00 +27°C° 1 mm 3 mps 748 mmHg 90%
    11:00 +27°C° 1 mm 3 mps 749 mmHg 88%
    12:00 +27°C° 0.3 mm 3 mps 748 mmHg 85%
    13:00 +27°C° 0.3 mm 3 mps 748 mmHg 82%
    14:00 +27°C° 0.3 mm 3 mps 747 mmHg 80%
    15:00 +27°C° 0 mm 3 mps 747 mmHg 79%
    16:00 +26°C° 0 mm 3 mps 747 mmHg 79%
    17:00 +26°C° 0 mm 3 mps 746 mmHg 78%
    18:00 +25°C° 0 mm 3 mps 747 mmHg 78%
    19:00 +23°C° 0 mm 4 mps 748 mmHg 78%
    20:00 +21°C° 0 mm 4 mps 748 mmHg 78%
    21:00 +21°C° 0 mm 4 mps 748 mmHg 78%
    22:00 +20°C° 0 mm 3 mps 749 mmHg 79%
    23:00 +19°C° 0 mm 3 mps 749 mmHg 79%

    1 June, Thursday

    Time Temperature Precipitation Wind Pressure Humidity
    00:00 +19°C° 0 mm 3 mps 749 mmHg 79%
    01:00 +19°C° 0 mm 3 mps 749 mmHg 79%
    02:00 +19°C° 0 mm 3 mps 749 mmHg 79%
    03:00 +19°C° 0 mm 3 mps 749 mmHg 78%
    04:00 +19°C° 0 mm 3 mps 749 mmHg 77%
    05:00 +19°C° 0 mm 3 mps 749 mmHg 76%
    06:00 +19°C° 0 mm 3 mps 749 mmHg 75%
    07:00 +19°C° 0 mm 3 mps 750 mmHg 74%
    08:00 +20°C° 0 mm 3 mps 750 mmHg 73%
    09:00 +21°C° 0 mm 3 mps 751 mmHg 69%
    10:00 +22°C° 0 mm 3 mps 751 mmHg 66%
    11:00 +24°C° 0 mm 3 mps 751 mmHg 62%
    12:00 +24°C° 0 mm 3 mps 750 mmHg 60%
    13:00 +25°C° 0 mm 3 mps 749 mmHg 58%
    14:00 +26°C° 0 mm 3 mps 749 mmHg 57%
    15:00 +25°C° 0 mm 2 mps 748 mmHg 60%
    16:00 +25°C° 0 mm 2 mps 748 mmHg 63%
    17:00 +24°C° 0 mm 2 mps 747 mmHg 66%
    18:00 +23°C° 0 mm 2 mps 747 mmHg 68%
    19:00 +21°C° 0 mm 2 mps 748 mmHg 70%
    20:00 +19°C° 0 mm 2 mps 748 mmHg 73%
    21:00 +19°C° 0 mm 2 mps 748 mmHg 74%
    22:00 +19°C° 0 mm 2 mps 748 mmHg 74%
    23:00 +18°C° 0 mm 2 mps 748 mmHg 75%

    2 June, Friday

    Time Temperature Precipitation Wind Pressure Humidity
    00:00 +18°C° 0 mm 2 mps 748 mmHg 75%
    01:00 +18°C° 0 mm 2 mps 748 mmHg 76%
    02:00 +18°C° 0 mm 2 mps 748 mmHg 76%
    03:00 +17°C° 0 mm 2 mps 748 mmHg 77%
    04:00 +17°C° 0 mm 2 mps 748 mmHg 78%
    05:00 +17°C° 0 mm 2 mps 748 mmHg 78%
    06:00 +18°C° 0 mm 2 mps 748 mmHg 78%
    07:00 +18°C° 0 mm 2 mps 749 mmHg 77%
    08:00 +18°C° 0 mm 2 mps 749 mmHg 77%
    09:00 +20°C° 0 mm 2 mps 749 mmHg 72%
    10:00 +23°C° 0 mm 2 mps 749 mmHg 67%
    11:00 +25°C° 0 mm 2 mps 750 mmHg 61%
    12:00 +27°C° 0 mm 1 mps 749 mmHg 60%
    13:00 +28°C° 0 mm 1 mps 748 mmHg 58%
    14:00 +30°C° 0 mm 1 mps 747 mmHg 56%
    15:00 +27°C° 0 mm 0 mps 747 mmHg 60%
    16:00 +27°C° 0 mm 0 mps 747 mmHg 65%
    17:00 +26°C° 0 mm 0 mps 746 mmHg 69%
    18:00 +24°C° 0 mm 0 mps 746 mmHg 74%
    19:00 +24°C° 0 mm 1 mps 747 mmHg 79%
    20:00 +22°C° 0 mm 1 mps 747 mmHg 84%
    21:00 +22°C° 0 mm 1 mps 747 mmHg 84%
    22:00 +22°C° 0 mm 1 mps 747 mmHg 84%
    23:00 +22°C° 0 mm 1 mps 747 mmHg 85%
    Show more